Theta_e
325 320 318 315 314 313 302 297 291 288 292 285 283 286 289 293 296 293 294 296 293 297 298 298 295 296 297 296 297 295 296 295 294 289 293 299 305 319 321 322 323 326 330 335 337 336 336 341 343 346 346 345 346 346 345 346 347 345 346 346 345 345 345 345 345 345 344 344 344 344 344 345 344 344 344 341 343 345 344 344 343 344 344 346 347 346 345 347 347 346 346 345 346 346 346 347 347
320 318 316 313 308 302 299 293 285 283 285 285 285 286 290 291 292 290 293 293 297 298 300 296 295 294 294 294 295 298 299 301 299 299 302 306 317 317 323 324 326 325 330 334 337 335 333 333 341 344 346 346 345 346 345 346 346 345 345 346 346 345 345 345 345 345 345 343 343 343 344 344 344 343 343 344 341 342 341 343 343 343 344 341 339 344 346 346 346 346 345 345 344 346 347 347 347
319 315 312 308 302 298 293 290 287 277 282 280 286 289 290 290 289 292 293 295 298 298 298 297 296 296 297 298 298 297 297 304 303 305 307 313 316 318 320 325 327 325 328 332 334 334 332 332 338 342 345 346 346 346 346 347 345 344 345 345 345 344 345 344 344 344 344 344 343 344 344 344 344 343 343 343 344 342 342 342 340 341 341 340 340 345 344 342 345 345 345 345 344 345 346 347 346
314 312 311 300 300 295 287 284 281 278 281 282 282 288 289 290 291 293 294 295 297 297 299 300 298 299 299 296 300 300 297 304 310 310 311 316 319 322 320 325 324 326 326 329 332 332 331 332 336 339 343 346 346 345 346 345 344 344 344 344 344 344 345 344 344 344 343 343 343 344 343 344 343 344 344 343 343 344 343 343 343 342 343 340 340 343 341 344 343 344 345 345 345 345 346 346 346
311 312 308 298 294 295 287 283 281 280 283 279 283 287 290 291 291 292 295 296 296 298 300 298 295 297 301 300 300 298 301 304 307 308 311 314 317 319 322 326 326 326 327 328 329 331 330 333 336 339 342 344 346 345 345 345 345 344 344 344 344 344 344 344 344 343 344 343 343 343 343 343 343 343 343 343 343 343 341 342 343 343 343 342 339 341 342 342 344 343 344 344 345 345 345 346 346
308 305 306 299 296 296 291 286 287 285 288 284 286 289 290 291 292 292 294 295 296 298 299 298 298 297 297 299 304 305 305 308 309 311 315 319 323 320 324 325 326 325 325 326 329 329 328 332 335 339 342 344 345 346 345 345 346 344 344 344 344 344 344 344 344 343 343 343 342 342 343 343 343 343 343 343 343 342 342 341 342 340 342 343 343 343 343 344 343 343 343 343 345 346 346 346 345
305 302 300 296 295 294 286 285 285 285 291 287 289 289 290 291 292 292 292 294 296 296 298 298 299 297 294 296 298 306 311 313 313 313 319 323 322 320 324 325 324 322 321 324 326 328 328 332 335 339 342 344 345 346 345 345 345 345 344 344 344 344 344 344 343 343 343 343 343 342 342 342 342 342 342 343 343 342 342 342 342 341 342 341 342 344 344 344 344 343 343 342 345 344 344 343 344
311 300 297 292 288 289 285 285 286 283 290 292 291 292 292 292 292 292 291 292 293 294 296 296 297 295 295 298 293 299 304 312 316 317 318 319 318 319 319 322 324 324 321 322 323 327 327 331 334 337 341 343 345 346 344 344 344 344 344 344 344 344 343 343 343 343 343 343 342 342 342 342 341 342 342 342 342 342 341 341 342 341 341 341 340 341 340 342 343 344 344 344 342 341 342 342 341
301 301 296 294 287 285 282 284 287 287 291 292 293 294 303 295 292 293 292 291 293 294 293 295 294 293 293 294 292 298 306 310 310 314 315 316 319 320 320 319 320 324 322 322 323 325 326 330 332 333 336 342 344 345 345 344 345 344 343 344 344 344 343 343 343 342 342 342 342 342 341 341 342 341 341 341 341 341 341 341 341 339 339 340 340 340 340 338 339 338 339 340 339 340 340 340 340
297 296 290 287 286 285 280 285 285 290 290 292 293 294 293 294 292 292 292 292 293 292 294 295 294 293 293 292 293 300 307 307 307 306 307 311 314 317 320 319 318 319 321 322 323 324 326 328 330 330 331 336 342 343 344 344 344 344 343 343 343 343 343 343 342 341 341 341 341 341 341 341 341 341 341 341 340 340 340 340 340 339 339 339 338 336 338 338 337 339 337 338 339 338 339 340 340
291 294 292 288 280 281 282 285 284 289 292 291 292 293 293 294 292 292 292 291 291 292 293 294 293 292 293 293 293 300 303 304 303 304 306 308 313 315 318 319 319 318 320 321 321 323 325 325 325 328 329 330 336 338 339 341 342 342 342 342 342 343 343 342 342 341 340 339 340 340 340 340 340 340 340 340 340 340 340 340 339 339 338 338 339 338 333 333 337 336 337 337 339 338 339 339 339
289 289 289 283 284 283 283 283 285 286 289 290 294 295 296 294 292 291 291 291 292 291 291 294 294 295 291 290 294 297 301 302 302 304 305 307 308 312 315 318 318 319 317 319 319 321 322 322 322 325 327 328 330 333 335 338 339 340 341 341 341 342 342 341 341 341 340 340 339 339 338 338 339 339 339 339 339 339 339 338 339 338 338 338 338 338 336 336 334 336 332 337 337 338 338 338 338
291 288 285 285 285 283 284 283 286 289 287 288 293 295 295 294 293 292 291 289 290 289 294 295 297 295 290 293 297 296 299 302 303 303 305 305 306 310 313 314 315 316 316 316 318 320 319 321 322 322 324 326 327 327 329 331 333 336 337 338 339 340 340 339 339 340 339 338 338 337 338 337 338 338 339 339 338 338 337 337 337 337 337 338 337 337 334 334 331 334 336 336 335 336 337 337 336
293 292 284 284 282 282 284 285 283 287 285 291 291 293 293 293 291 293 291 291 291 292 296 298 295 295 293 291 294 293 298 302 302 303 304 305 305 307 308 310 310 311 312 314 318 319 318 319 320 321 322 324 328 327 326 325 327 330 332 334 336 337 337 336 336 336 336 335 334 334 336 336 336 336 336 336 336 336 335 334 332 333 336 337 337 336 336 335 336 336 336 336 336 335 334 333 334
295 290 287 282 280 283 285 285 286 283 286 290 295 293 292 294 292 291 293 292 292 293 296 298 296 294 290 292 291 294 300 303 302 303 303 303 303 302 303 303 304 304 307 310 314 316 319 316 318 318 319 322 325 327 329 329 324 324 326 329 331 332 333 333 332 332 331 331 330 331 332 333 332 333 333 333 332 332 331 331 330 333 336 336 336 336 336 336 336 336 335 334 333 335 333 334 333
293 289 284 281 283 282 285 285 283 283 285 290 292 290 290 291 292 294 293 295 295 295 296 296 296 295 294 293 296 300 302 301 302 302 301 301 300 300 299 299 299 300 303 308 312 314 315 316 316 316 317 320 320 325 329 330 327 324 323 324 325 326 328 328 328 327 327 327 328 328 329 328 328 326 331 327 327 328 329 325 325 332 336 336 335 336 336 333 335 335 335 334 334 334 333 331 332
291 289 283 277 282 284 285 285 283 283 286 286 288 290 290 291 292 293 296 295 295 293 293 293 297 297 294 295 299 300 301 301 302 300 300 300 298 298 299 300 300 300 303 303 307 311 314 315 315 315 315 317 318 321 326 328 329 324 324 322 322 322 324 324 325 324 324 324 324 325 327 326 325 325 324 320 323 319 322 322 322 328 335 335 335 335 335 334 334 334 334 334 334 333 328 325 324
288 284 279 281 282 284 284 287 285 288 289 290 290 290 291 288 291 294 295 293 289 292 290 292 292 293 296 297 296 298 299 299 299 299 298 298 297 297 298 299 298 298 299 301 302 309 312 315 315 315 315 316 316 318 321 325 327 325 328 328 327 326 323 323 326 326 322 325 322 326 328 326 325 324 321 319 318 317 318 321 322 327 333 334 333 333 333 334 334 334 333 331 329 326 323 318 318
286 280 279 283 282 287 288 290 287 290 289 289 289 288 290 291 292 293 293 291 290 289 289 288 291 294 296 298 299 299 299 298 298 297 296 296 296 296 297 297 297 297 299 300 303 305 309 312 313 316 316 314 314 315 317 319 322 325 326 326 326 323 325 325 327 325 327 327 327 328 325 326 325 322 319 317 317 319 318 318 319 321 327 330 331 331 330 330 332 331 330 326 324 322 318 316 317
289 282 281 281 285 286 288 289 292 291 291 291 290 289 289 291 292 294 293 290 287 289 290 289 290 293 294 296 297 297 297 297 297 296 295 295 296 296 296 297 297 297 298 299 302 305 305 306 309 313 315 315 314 316 314 316 318 322 324 325 326 326 326 326 326 326 327 327 327 326 326 325 323 321 318 315 315 319 317 317 317 317 318 323 326 327 326 325 325 325 325 323 318 317 315 315 315
290 284 281 287 285 289 292 289 291 291 290 290 289 288 289 289 290 293 291 288 286 286 288 291 292 293 294 295 295 296 295 295 296 295 295 296 296 297 296 297 296 297 298 300 300 301 301 301 302 305 310 312 313 316 314 315 316 319 322 324 325 325 324 325 325 325 325 326 326 325 325 323 323 321 319 318 317 318 317 317 318 320 321 321 322 322 319 318 314 312 313 312 312 313 315 313 314
288 289 286 287 287 290 290 290 289 291 289 289 287 288 291 292 292 291 291 289 287 289 295 290 292 294 293 294 295 293 294 294 295 294 295 294 295 296 296 295 296 295 297 298 299 299 300 300 300 300 304 308 311 314 316 315 315 318 320 322 323 324 324 323 324 324 324 325 325 324 323 322 322 321 319 319 318 318 318 317 321 322 322 322 322 321 318 316 314 312 310 310 311 311 312 311 312
289 287 289 286 287 291 291 291 289 289 290 289 288 290 291 290 291 289 290 290 289 290 293 294 293 293 293 292 291 292 293 294 294 294 294 294 295 295 296 295 295 297 297 297 297 298 300 300 300 300 302 305 309 312 314 313 314 317 320 322 322 322 324 322 322 323 324 324 324 323 322 321 320 319 319 319 318 318 318 317 318 320 322 322 321 320 317 313 311 310 310 309 309 310 310 310 313
288 290 288 292 289 291 291 292 291 288 288 288 288 290 291 289 290 289 288 291 294 295 293 292 291 292 291 291 292 292 293 293 293 294 293 293 294 295 295 295 296 294 294 297 298 298 300 301 300 300 301 301 303 308 312 313 312 315 319 320 321 321 322 323 323 323 324 324 324 324 322 322 321 320 319 319 319 319 318 319 318 320 320 320 319 319 316 314 311 309 309 306 307 309 310 311 314
289 287 290 291 291 290 290 290 289 288 288 289 289 290 290 289 289 288 290 292 291 291 290 290 291 291 291 291 293 293 293 292 293 293 294 293 293 294 295 294 294 294 297 298 298 300 301 302 301 302 302 302 302 304 309 312 310 314 318 320 321 320 322 323 323 323 323 323 323 323 322 322 322 321 320 319 319 318 318 318 317 318 320 319 318 317 316 313 312 309 306 305 306 310 311 313 315
291 290 289 290 291 291 291 289 288 287 290 288 290 289 289 288 289 289 292 291 290 290 291 292 291 292 292 292 292 292 291 291 291 293 294 293 294 295 296 295 295 297 296 296 297 299 300 302 303 303 303 303 302 302 306 309 311 315 319 320 320 320 321 322 322 322 323 322 322 322 322 323 322 321 320 319 319 318 316 314 315 317 317 316 317 316 315 313 309 306 307 308 309 311 313 314 314
291 291 290 291 293 291 290 289 288 288 288 288 290 289 289 290 289 285 287 288 287 291 290 290 290 290 291 292 293 292 290 292 292 291 294 295 295 294 295 295 296 297 296 297 298 299 299 302 304 305 305 305 304 304 304 307 309 311 312 317 320 320 320 321 321 321 321 321 321 321 321 321 321 320 319 319 319 319 318 317 316 315 314 313 315 316 314 314 311 308 308 309 309 311 313 314 314
293 291 292 290 290 288 288 287 287 288 291 287 289 290 286 286 287 284 289 289 289 290 290 290 289 289 290 291 292 292 289 291 290 291 295 295 297 294 294 295 296 296 297 298 298 298 300 302 304 306 307 307 306 306 305 306 307 309 309 314 318 320 320 320 320 320 319 320 320 319 320 319 317 319 319 318 319 318 317 317 315 314 314 312 313 313 313 312 310 308 308 309 309 312 313 313 313
293 291 291 289 288 289 287 288 288 287 290 289 288 287 283 286 285 288 287 289 289 290 289 289 289 289 289 289 291 291 289 290 290 292 294 295 293 292 294 295 295 295 297 296 298 297 300 301 304 306 307 307 307 307 307 306 306 308 308 309 314 319 319 319 319 319 319 319 319 318 318 318 317 318 317 318 318 318 317 316 314 313 312 311 311 311 311 310 309 309 308 309 310 311 312 311 311
294 290 288 289 284 285 287 286 286 288 290 288 289 280 278 279 286 286 287 289 288 290 289 288 288 288 289 289 290 291 290 289 292 292 292 293 293 293 294 295 296 295 297 296 296 300 301 303 305 306 306 306 306 306 306 307 308 308 307 308 311 316 318 318 318 318 318 317 317 316 316 316 316 316 317 316 316 316 316 315 313 311 310 310 309 308 308 309 309 308 307 309 308 310 310 310 309
288 288 284 283 282 284 285 285 285 287 289 289 289 282 284 286 286 287 287 288 290 289 288 288 288 288 288 290 289 290 290 288 291 291 292 292 293 293 294 295 295 295 296 296 298 298 299 301 303 305 304 305 304 304 305 306 307 306 305 304 304 309 314 316 316 316 316 317 315 314 314 313 314 315 315 316 315 315 314 311 311 308 308 309 308 308 309 308 308 307 307 308 308 307 307 306 305
282 284 281 277 282 279 283 286 286 286 289 287 289 281 283 286 288 288 288 288 288 290 289 287 287 288 288 288 289 288 290 289 289 292 293 293 293 294 295 296 295 295 296 296 296 297 300 300 299 299 301 303 303 302 302 304 304 303 303 304 304 304 307 310 312 313 314 312 313 312 311 312 311 313 312 312 312 312 312 311 308 308 309 308 307 306 307 307 306 305 306 308 306 305 304 302 302
279 283 281 281 280 279 283 286 285 287 286 286 287 284 285 288 286 288 288 290 289 288 289 287 287 288 288 288 288 289 289 291 293 295 295 295 295 295 296 296 296 296 295 296 296 297 299 300 298 299 301 301 301 301 301 300 301 301 301 301 302 302 303 305 307 309 309 309 309 308 308 309 310 308 308 308 308 308 308 310 309 309 307 307 306 304 304 304 305 305 305 305 307 304 301 299 299
281 280 281 278 281 279 281 284 286 286 287 286 284 284 286 289 292 292 290 289 289 289 288 287 287 289 289 288 287 288 288 288 293 296 297 296 296 296 296 296 296 295 294 295 294 296 298 297 297 297 299 299 299 299 299 299 299 300 300 300 300 301 300 302 305 307 306 306 306 305 305 306 306 308 308 308 308 307 308 309 309 308 306 305 305 304 303 304 305 306 304 304 305 303 301 299 297
279 281 281 281 280 279 281 280 282 287 284 285 284 284 286 289 291 292 291 289 287 289 289 289 289 289 289 288 287 288 289 288 294 296 296 296 296 296 295 294 294 294 294 294 294 295 295 296 296 297 297 299 299 298 297 297 297 298 298 299 299 299 299 300 303 305 304 305 304 303 301 301 302 305 307 308 307 306 308 308 308 307 306 307 305 304 303 303 304 304 304 302 302 302 300 298 296
284 281 280 279 282 280 281 281 282 286 286 285 283 284 287 288 288 291 292 288 287 289 289 288 288 288 288 288 288 288 289 290 293 294 294 294 295 296 295 293 293 293 294 294 293 294 294 294 293 296 296 297 297 298 297 296 298 296 296 296 297 297 297 297 300 301 302 300 298 299 300 301 302 302 303 305 304 305 306 307 306 305 305 306 305 304 303 303 303 303 303 301 299 298 298 296 294
281 280 282 282 280 281 280 281 284 283 284 284 284 282 284 286 289 291 292 288 287 287 288 288 287 287 287 287 287 288 288 291 293 293 293 293 293 294 294 292 293 294 294 293 293 293 293 293 294 297 296 293 296 299 297 296 296 295 293 293 293 293 293 296 298 298 299 298 297 297 298 299 301 301 301 302 303 304 306 305 305 304 304 304 304 303 302 302 302 303 301 300 299 296 295 295 294
284 283 282 281 280 281 282 284 285 285 285 281 281 284 287 288 290 291 291 289 288 289 287 286 286 286 287 286 287 288 288 287 289 291 293 291 292 292 292 293 293 296 296 294 293 294 292 291 295 295 293 293 293 294 297 297 295 296 295 294 293 291 292 293 294 296 296 298 298 298 299 299 300 300 299 299 298 301 302 304 305 304 304 303 301 301 300 299 301 301 301 298 297 297 294 295 295
281 283 280 281 281 280 283 283 283 284 285 284 279 283 286 288 290 291 290 289 290 289 287 287 286 286 286 285 286 287 288 289 290 290 290 290 290 291 291 293 293 293 294 293 291 292 292 293 292 291 292 292 291 291 293 293 293 293 293 293 292 293 293 293 293 294 295 296 296 296 296 296 297 297 298 297 297 299 300 301 301 301 301 300 300 299 299 300 301 300 301 299 294 294 295 295 295
282 280 282 281 279 282 280 281 281 284 284 282 281 281 285 288 289 287 286 285 285 284 285 286 287 288 287 288 288 287 287 288 290 292 292 291 290 290 291 292 295 292 292 294 292 291 289 291 291 290 293 291 290 291 291 291 292 292 293 291 292 292 293 293 293 293 294 297 296 295 293 293 293 292 294 296 296 298 299 300 299 300 299 301 301 299 299 299 299 299 300 299 298 294 294 293 293
281 281 279 279 281 281 282 282 281 282 281 282 281 280 280 279 278 281 282 282 283 286 285 284 285 286 287 287 287 287 288 290 291 291 290 290 291 292 293 294 291 291 294 294 293 291 293 293 293 291 291 292 290 290 291 292 293 293 292 293 291 291 293 290 293 293 291 291 291 291 290 290 292 293 294 295 296 297 297 297 298 298 298 298 300 300 299 299 299 300 300 298 297 296 292 293 293
279 280 284 283 282 283 281 281 283 281 277 280 280 276 273 276 281 283 284 282 285 284 284 287 287 287 286 287 288 286 288 289 291 292 292 292 291 291 291 291 292 293 294 295 293 291 289 291 291 291 290 290 289 289 290 290 291 293 291 292 294 290 292 292 294 293 291 290 289 291 291 291 291 292 292 293 294 295 295 295 296 297 297 297 298 299 299 297 298 298 299 299 296 297 296 293 291
281 283 282 284 283 282 282 282 282 273 274 279 280 274 273 279 283 285 281 281 284 285 284 287 286 287 286 288 289 288 288 288 288 289 289 289 290 289 291 291 292 293 295 294 289 288 290 292 290 290 290 291 289 289 289 289 290 290 292 292 292 294 293 289 289 290 291 288 288 288 288 289 289 290 290 290 290 291 292 293 294 295 295 295 295 296 296 297 297 298 297 297 298 297 296 293 292
280 282 281 282 282 283 281 282 281 278 278 280 281 278 272 273 283 281 279 282 285 285 284 283 284 284 286 287 288 288 288 288 289 290 291 291 291 291 292 293 292 294 294 290 289 288 290 292 290 290 287 289 290 289 289 291 293 290 290 291 291 292 292 292 289 288 288 287 286 286 286 286 287 287 287 286 287 287 288 288 290 291 291 291 291 293 294 293 294 293 294 296 295 295 295 295 292
282 283 282 281 283 280 280 281 278 278 276 278 277 279 275 272 280 281 280 283 285 283 283 283 283 283 284 286 287 287 288 288 289 290 291 291 291 291 291 292 292 292 292 291 291 291 290 290 290 290 289 288 288 288 290 289 291 291 292 292 290 288 289 288 286 286 285 285 286 285 285 285 285 286 286 286 286 286 286 286 287 289 289 289 290 290 290 291 293 293 292 292 293 292 293 291 292
283 283 283 281 281 280 279 277 281 275 274 274 277 279 273 274 276 281 277 281 280 282 283 284 284 284 284 286 286 287 286 286 287 289 291 291 292 292 291 290 289 291 291 289 288 287 287 288 289 288 291 288 289 289 289 288 288 289 290 289 290 288 285 285 284 284 284 284 285 284 285 285 284 285 285 285 285 284 285 287 287 288 287 287 287 288 288 287 289 291 292 292 291 292 290 291 291
284 282 283 281 279 278 276 276 273 272 268 277 277 279 277 272 276 280 281 280 280 280 281 283 284 285 284 285 286 287 287 287 287 288 289 290 289 289 288 290 291 290 289 287 288 287 287 289 289 288 293 291 290 289 288 290 288 289 291 289 290 288 284 284 284 284 283 284 284 283 283 284 284 284 284 284 284 285 285 286 286 285 285 286 286 286 287 288 287 288 287 287 287 289 288 289 289
285 281 278 278 279 276 277 275 273 270 267 273 273 277 278 270 274 277 280 281 280 281 284 286 286 288 288 288 287 286 286 286 287 286 288 289 289 289 287 290 290 291 289 289 289 287 287 290 289 290 291 290 288 288 288 288 289 288 288 289 289 288 287 286 286 286 283 284 283 284 282 283 283 283 284 284 285 285 285 285 285 285 285 285 286 285 285 286 285 286 286 287 287 287 287 288 288
282 281 282 274 268 266 265 267 269 267 270 273 276 278 277 277 279 280 283 285 285 283 284 286 287 288 289 289 289 288 286 285 286 286 287 287 289 290 290 290 290 290 292 292 291 290 289 288 288 289 291 289 287 285 288 288 287 288 289 288 288 288 286 286 286 286 284 284 284 284 283 283 283 284 284 285 284 284 285 285 285 285 285 285 284 284 284 285 285 285 286 286 286 286 287 287 288
281 282 277 271 266 266 260 262 263 266 273 275 277 278 275 277 280 286 288 290 290 290 288 288 287 288 289 289 289 289 289 287 287 286 286 287 289 290 291 291 291 291 292 292 291 290 289 288 288 288 292 288 287 285 287 288 287 288 287 287 288 287 286 286 286 286 285 285 286 286 286 286 285 285 285 285 284 284 284 285 285 285 284 284 284 284 284 284 284 284 284 285 285 284 285 286 286
283 282 283 279 268 262 261 258 267 269 268 273 275 273 270 275 278 280 283 286 286 286 286 286 285 287 287 287 287 287 288 288 287 287 288 289 290 289 290 290 290 291 292 291 290 290 288 288 288 288 289 288 286 287 288 288 288 287 285 285 286 286 286 285 286 286 286 286 287 288 286 285 285 286 285 284 283 284 284 284 284 283 283 283 283 283 282 282 282 282 282 283 283 283 283 283 283
281 280 280 276 277 273 270 266 263 262 265 269 270 273 275 278 281 284 286 284 285 285 286 285 287 287 284 286 288 288 288 289 288 287 288 288 288 289 289 289 290 290 291 290 290 290 288 289 288 288 290 289 287 286 287 288 288 288 285 284 284 284 285 285 285 285 285 285 287 287 285 283 283 283 283 283 283 283 283 283 283 283 283 283 282 282 281 279 280 281 282 283 282 283 282 282 281
281 282 277 279 280 279 269 272 273 272 266 270 270 275 277 279 284 288 287 285 288 286 285 285 287 287 283 285 287 287 288 288 288 287 287 288 287 287 288 288 289 289 290 291 292 291 289 289 288 288 288 287 286 286 287 287 287 285 285 284 283 282 283 284 285 284 284 282 283 282 282 281 280 281 281 282 283 283 283 283 283 283 283 282 282 281 281 280 280 282 283 283 282 283 283 281 280
282 276 281 282 280 279 275 269 263 266 267 270 273 276 276 275 276 280 278 280 284 281 282 282 283 282 282 285 286 287 288 288 287 287 286 287 287 287 287 288 288 289 290 290 291 290 288 288 288 289 288 287 287 286 286 286 286 285 284 283 282 283 284 283 283 282 282 282 280 280 280 281 280 281 282 282 282 282 282 283 282 282 282 282 282 281 281 280 280 280 280 281 282 282 280 280 279
283 279 282 282 273 275 271 269 265 263 266 267 268 271 273 278 279 280 282 281 283 283 281 282 285 285 285 285 286 286 286 285 286 286 286 287 286 286 287 287 288 288 289 289 290 289 288 287 287 287 289 289 288 287 285 285 285 287 286 284 283 282 282 282 282 282 282 283 282 281 281 280 280 281 281 282 282 282 282 282 282 282 281 281 281 281 281 281 281 279 279 279 280 280 279 278 278
285 284 283 282 277 268 269 273 268 267 267 264 270 267 272 279 278 280 284 286 286 287 286 284 285 285 285 285 286 286 287 287 286 286 286 286 286 286 287 287 288 288 288 288 288 287 287 288 285 286 286 284 284 285 284 285 284 285 284 282 282 282 282 282 282 282 282 282 282 282 281 281 281 281 281 282 281 282 282 281 282 281 281 281 281 281 281 281 280 280 279 279 279 279 278 277 277
280 280 279 280 274 279 274 271 270 271 263 261 264 270 270 277 283 285 286 286 286 286 287 286 286 286 284 284 285 286 286 286 287 287 287 286 286 286 286 285 286 287 287 287 287 288 288 285 285 286 286 286 285 285 284 285 284 283 283 283 282 281 281 281 280 281 281 282 282 282 281 281 281 281 281 281 281 281 281 281 281 280 280 280 280 280 280 280 279 279 279 278 278 278 277 276 276
285 284 282 284 278 274 271 274 269 263 271 271 262 273 272 278 282 285 285 286 286 287 286 286 285 285 285 285 285 285 285 286 286 287 286 285 285 285 285 286 285 285 287 287 287 284 285 286 286 285 284 286 286 285 285 284 283 284 283 283 281 281 280 280 280 280 281 280 281 281 281 281 281 280 281 280 281 281 280 280 280 280 280 279 279 279 279 279 278 278 277 277 277 277 276 275 275
Wind_Speed
10 9 8 4 1 0 2 7 3 4 7 4 2 5 2 1 1 4 6 8 5 2 0 6 2 4 1 0 0 3 1 3 2 2 2 3 2 8 5 4 3 2 2 1 0 1 2 3 4 5 6 5 5 5 5 5 3 3 2 3 1 1 2 2 2 2 1 1 1 1 1 1 1 4 6 5 7 4 2 1 1 2 3 6 6 5 5 5 4 3 4 4 4 5 6 6 7
8 8 6 2 0 0 1 2 6 3 6 5 3 1 2 6 4 3 4 3 0 5 10 5 5 1 4 6 3 2 2 0 2 0 4 5 7 1 5 4 4 4 3 2 2 1 2 2 4 4 6 5 5 5 5 4 2 3 3 3 3 2 2 3 3 3 3 1 1 1 2 0 2 2 2 7 5 2 1 4 1 2 4 3 7 3 5 6 5 6 5 6 5 6 5 6 6
9 7 4 3 3 6 2 5 2 1 7 6 0 1 3 4 3 6 4 5 6 7 8 5 2 3 4 6 5 4 2 1 1 2 3 3 7 7 8 4 2 1 1 1 1 2 2 4 6 6 7 6 5 6 5 3 3 3 4 5 5 3 2 3 4 3 3 3 2 3 3 3 3 1 1 4 6 5 8 7 5 4 5 6 9 6 3 4 6 6 6 7 10 5 6 6 6
5 1 2 2 0 5 4 5 5 5 6 3 1 2 3 1 4 4 7 8 9 5 4 7 6 1 2 5 2 0 1 3 1 1 3 4 0 7 7 2 1 2 1 1 0 0 1 3 5 7 8 8 7 7 6 5 5 5 5 6 6 5 4 3 4 3 3 2 3 4 3 3 4 4 4 3 1 6 6 7 8 8 8 7 7 6 7 7 6 6 5 7 5 6 5 6 6
4 1 2 4 5 4 5 2 5 3 4 4 4 2 2 2 5 5 6 6 5 2 7 5 2 2 1 2 0 1 2 4 1 4 2 3 1 5 5 2 2 3 2 1 2 1 1 2 4 5 7 9 9 7 6 6 6 6 6 6 6 7 6 6 5 5 3 3 3 4 4 5 4 4 4 4 4 2 2 4 7 8 8 9 10 9 7 8 6 5 4 4 5 6 5 5 6
1 4 3 5 3 3 6 6 6 7 1 3 2 1 3 3 3 5 8 10 3 3 4 5 2 4 3 2 1 1 1 4 3 2 0 4 8 6 6 3 1 1 3 4 5 4 3 4 3 5 7 9 10 9 8 7 8 8 8 8 7 7 7 7 7 7 5 5 4 4 5 5 5 4 3 3 5 4 5 4 4 5 7 9 9 9 10 8 5 4 5 4 5 5 4 6 5
5 5 6 5 5 6 5 7 6 4 1 3 2 1 3 4 4 3 8 8 2 4 5 3 2 1 1 3 3 2 1 3 2 3 0 8 8 5 4 4 2 4 3 3 2 3 5 8 7 6 8 9 10 11 10 9 10 10 10 10 9 8 8 7 7 6 6 6 6 6 5 5 5 5 5 4 4 5 5 6 6 4 6 6 7 7 6 6 6 6 6 5 3 3 4 6 6
1 2 3 8 3 6 5 3 3 2 0 3 2 1 2 2 3 1 5 4 6 5 9 3 2 1 1 3 1 2 5 2 4 6 6 6 5 5 4 4 5 6 5 4 3 3 4 7 8 10 11 11 11 11 11 10 10 10 10 11 11 11 10 9 8 8 8 8 7 7 7 7 7 7 6 5 5 5 5 5 6 7 6 7 8 5 6 6 4 4 6 4 4 4 4 5 4
7 8 0 8 6 3 4 3 2 1 0 0 0 4 4 2 1 1 4 2 3 0 4 5 5 1 2 8 1 5 2 2 5 6 4 5 7 8 5 4 4 7 6 6 5 4 4 6 8 9 9 12 12 11 12 11 9 9 10 10 10 9 8 8 7 7 7 8 8 8 8 8 8 8 8 7 6 5 4 4 4 6 7 7 7 6 6 4 8 10 5 4 5 4 2 2 3
3 4 2 5 4 6 2 1 4 1 1 1 1 2 3 3 2 2 1 4 0 5 2 3 2 3 2 2 4 4 3 7 7 8 8 8 6 6 5 4 3 4 8 5 4 5 5 7 9 9 10 9 12 11 10 10 8 8 8 9 9 8 7 7 8 9 9 8 8 8 8 8 9 9 9 8 7 6 5 4 3 4 5 6 6 6 8 7 8 11 6 4 5 2 4 2 2
3 6 2 7 6 4 2 1 1 1 1 3 4 4 3 3 1 0 1 3 1 1 7 4 2 5 1 3 3 3 4 5 6 7 9 7 6 6 7 5 4 3 6 7 5 4 5 5 7 8 9 9 10 10 9 8 7 8 8 8 8 8 7 7 8 10 10 9 8 8 8 9 8 8 8 8 8 7 6 4 4 3 4 5 6 6 5 12 9 8 10 6 6 5 3 3 2
3 5 5 5 5 3 1 3 1 5 6 1 0 2 0 2 1 2 4 6 4 5 4 3 2 1 2 3 2 4 9 6 3 5 7 7 8 5 5 7 6 6 4 6 4 5 4 4 4 5 8 9 10 10 9 9 8 8 9 8 8 8 7 7 6 7 8 7 7 7 7 7 6 7 7 7 7 7 7 6 5 4 4 4 4 4 7 6 7 7 8 9 6 7 5 3 4
6 1 6 7 0 1 1 2 2 3 3 1 0 1 1 2 0 0 2 2 2 2 6 3 1 1 1 1 4 7 8 8 4 4 8 7 8 8 5 6 6 6 7 4 5 5 4 4 4 4 4 8 10 10 10 10 9 8 8 8 8 8 8 7 7 7 6 6 5 5 4 4 6 5 5 5 6 6 5 4 4 4 3 4 4 5 2 5 8 11 10 10 9 7 3 2 4
4 1 4 3 1 2 1 0 2 0 1 1 2 3 3 0 2 1 1 4 5 1 2 0 1 2 1 3 7 6 7 8 6 6 8 8 7 6 6 5 5 6 6 5 6 5 4 4 4 4 4 4 5 7 9 10 9 8 7 8 8 8 8 7 7 7 6 5 4 4 3 3 3 3 3 3 3 4 4 4 4 4 4 4 4 4 5 5 7 10 7 6 4 2 3 1 2
1 2 6 5 2 1 2 2 1 1 1 0 0 3 4 4 1 1 1 1 3 2 6 1 1 2 2 1 7 4 7 9 8 9 9 9 7 6 5 5 6 4 6 6 5 5 5 3 4 3 3 3 4 5 5 7 9 8 8 8 8 8 8 8 7 7 6 5 4 4 3 4 3 3 3 4 4 4 4 3 3 3 5 5 5 6 6 5 4 4 5 2 10 4 2 4 5
4 6 5 3 1 1 1 1 1 2 1 0 2 4 3 2 0 1 2 2 3 1 3 1 1 0 1 2 6 8 10 9 8 7 9 8 9 5 6 5 7 6 4 5 7 4 4 4 4 4 3 3 4 4 6 6 7 8 8 8 8 8 8 8 8 7 7 6 5 4 3 2 3 2 3 1 2 2 2 1 3 3 5 5 4 4 3 3 2 3 3 4 4 3 2 3 5
2 5 5 4 1 0 1 0 3 2 4 3 3 4 4 4 1 2 0 1 2 5 4 3 1 1 3 4 7 7 10 6 6 8 6 9 9 9 9 9 10 9 9 7 5 8 6 4 4 4 4 4 4 4 5 6 6 6 6 8 8 8 7 8 9 9 8 7 5 4 3 1 0 1 1 0 2 0 1 1 3 4 4 4 3 2 4 5 3 4 4 4 4 8 8 9 10
5 4 4 3 1 0 3 2 5 1 1 5 4 1 1 4 5 2 2 2 2 6 2 4 3 4 5 5 4 5 6 7 6 9 10 9 7 8 9 8 7 7 7 9 5 6 7 5 5 5 5 4 4 5 5 5 5 6 6 5 5 6 6 7 7 6 6 5 6 5 4 2 1 0 1 0 0 0 2 4 3 3 4 4 3 2 3 3 5 7 6 6 7 7 7 3 4
7 3 4 2 3 2 3 2 3 1 4 4 4 2 1 2 0 2 4 6 6 5 5 4 4 6 7 7 10 11 10 12 9 8 7 8 7 7 7 6 7 6 8 8 9 9 7 6 5 6 5 5 4 5 5 5 5 4 5 6 5 5 5 6 5 5 5 5 4 4 4 4 3 2 1 1 1 1 1 4 6 7 3 3 3 4 3 4 6 7 7 6 6 6 3 2 3
0 3 3 0 5 4 4 3 3 5 1 5 6 1 1 5 1 1 1 4 4 3 3 4 2 7 9 9 10 9 9 11 8 6 7 7 5 5 5 6 8 5 6 5 7 6 6 7 6 4 5 4 4 5 4 5 4 4 5 4 5 4 5 5 5 4 4 4 4 4 4 4 4 3 1 2 1 1 1 3 4 3 5 3 2 3 4 6 7 8 6 5 4 3 3 3 3
1 4 2 1 2 1 2 3 6 5 2 3 3 2 4 1 2 0 1 4 4 5 4 2 5 7 8 9 9 8 9 10 10 8 6 7 7 3 3 5 5 6 4 6 4 6 7 7 7 7 5 4 3 5 4 5 5 4 4 4 4 4 4 4 4 4 4 4 4 4 4 4 4 4 2 1 1 1 0 1 1 1 2 1 1 1 2 3 3 2 2 3 3 3 3 3 2
1 1 3 2 0 1 7 4 4 1 1 1 2 4 4 1 1 1 0 1 7 2 1 3 5 7 7 9 11 8 7 8 8 8 7 5 5 7 7 5 3 3 3 5 7 7 8 7 6 7 6 5 4 5 5 5 3 4 4 4 4 4 4 5 4 3 3 4 4 4 4 4 4 4 3 2 1 2 1 2 2 3 2 1 0 2 2 3 2 0 1 3 2 2 2 3 3
1 2 1 2 2 2 2 1 2 2 1 2 3 2 3 2 3 2 3 5 6 5 3 5 5 5 6 4 5 7 7 8 7 7 6 7 8 6 5 4 5 7 6 5 4 4 5 6 7 7 7 7 6 5 5 5 4 4 4 4 5 5 4 5 5 3 4 4 4 5 5 4 4 3 3 2 2 2 2 0 1 2 3 2 2 3 1 3 1 3 5 3 2 3 4 4 5
5 0 2 3 4 4 5 5 1 4 2 5 2 2 2 2 5 0 2 8 9 9 5 4 6 5 3 6 4 4 4 3 5 4 4 3 3 4 4 5 6 4 4 5 5 6 7 8 6 5 6 7 7 7 5 4 3 3 4 4 4 4 4 5 4 3 2 4 5 5 5 5 5 4 3 3 2 1 2 2 0 2 2 1 1 3 3 2 2 3 2 3 3 4 5 5 5
3 3 1 4 1 4 5 5 6 3 4 5 1 1 6 3 1 0 6 7 4 5 4 3 4 5 4 3 6 7 6 6 6 5 3 1 2 3 3 3 3 3 5 6 6 6 7 7 6 7 6 6 7 6 6 5 3 3 3 3 3 3 4 3 2 3 4 3 3 4 5 5 4 5 4 4 2 2 0 1 1 4 3 1 0 2 2 2 2 2 3 4 3 5 5 5 6
1 2 4 5 5 5 5 5 1 2 4 2 1 6 6 6 1 3 9 5 3 4 2 4 6 7 7 7 6 5 5 4 4 3 3 3 3 3 4 4 4 4 4 4 5 5 5 6 6 7 6 7 7 6 6 5 4 3 3 3 3 2 3 2 2 3 2 3 3 3 4 4 4 4 4 4 4 3 1 2 2 3 3 1 0 0 1 1 0 3 3 4 4 5 5 4 6
1 4 4 6 10 6 2 1 3 4 2 0 2 7 6 1 3 4 3 7 3 2 4 4 5 5 5 5 6 4 5 4 3 3 2 2 2 4 4 4 4 4 3 4 4 4 5 5 6 6 6 5 5 5 6 6 4 3 3 3 2 3 2 3 3 3 3 2 3 4 4 5 4 4 4 4 3 4 5 4 4 3 3 3 3 2 2 1 0 2 4 5 3 5 4 4 6
2 2 6 5 7 2 3 1 2 4 2 1 0 8 3 2 1 7 5 3 2 2 3 5 4 3 4 5 5 5 3 4 4 0 1 3 2 3 4 4 5 5 4 5 4 4 5 4 5 5 6 6 5 5 5 6 6 4 3 2 3 3 3 3 4 4 4 4 4 4 4 4 3 3 4 4 3 4 4 4 4 4 4 4 2 2 3 2 2 3 5 5 3 6 5 5 5
1 3 3 7 9 4 2 3 2 2 2 3 1 5 2 0 5 7 5 1 1 1 4 4 5 4 2 4 4 5 3 5 5 1 2 2 2 2 3 4 3 4 4 3 4 4 3 4 4 5 6 6 6 6 6 5 5 4 3 1 3 3 4 4 4 4 4 5 5 4 4 4 4 4 3 4 5 5 4 3 3 4 4 4 3 3 3 4 4 5 6 6 5 6 6 6 6
0 3 1 5 7 7 2 2 4 6 1 5 4 5 9 6 11 4 1 1 3 5 6 5 5 4 2 2 4 5 5 3 4 4 4 3 3 3 3 5 4 4 4 4 3 3 2 2 3 4 5 6 6 5 5 6 6 5 3 0 3 4 4 4 4 4 4 4 5 5 5 4 4 4 4 5 4 4 4 4 4 3 3 3 4 4 5 5 5 6 6 7 5 6 7 4 6
1 2 4 1 3 4 2 3 5 4 1 6 4 1 10 11 9 8 3 1 3 6 6 6 5 4 3 1 3 4 7 5 6 5 5 6 4 3 4 5 4 4 4 4 3 3 3 3 3 4 4 5 5 6 6 6 5 5 4 2 1 3 3 4 4 4 4 5 4 4 4 5 6 5 5 5 5 4 4 2 3 4 3 3 4 4 5 4 6 7 7 8 6 8 7 6 6
1 2 3 3 3 5 10 3 4 2 3 6 2 1 9 12 11 2 1 1 5 7 8 6 7 6 5 2 2 4 6 5 6 6 7 6 5 4 4 5 4 4 4 3 3 3 3 3 3 3 4 5 5 4 3 4 5 4 4 4 3 2 1 1 1 1 2 1 2 1 2 2 3 5 5 5 5 4 4 4 4 3 4 4 4 4 4 6 6 7 6 9 9 8 10 7 6
4 2 3 2 0 5 8 1 3 3 3 3 3 6 9 12 2 1 2 6 8 8 9 7 8 8 7 4 3 3 5 6 4 6 7 7 6 5 5 4 4 4 4 4 3 4 3 4 3 4 5 5 4 4 4 4 5 5 4 4 4 4 5 4 4 3 3 2 3 1 1 0 2 2 5 5 5 5 3 4 4 5 6 6 5 5 5 6 8 7 5 3 6 9 11 11 7
2 3 2 2 1 2 2 9 3 6 3 5 3 2 9 13 18 11 4 4 9 11 9 8 8 8 7 4 3 4 5 6 8 8 9 7 6 6 5 4 4 4 4 4 3 2 3 3 3 3 4 4 3 3 3 3 3 4 4 5 4 5 5 4 3 4 4 3 3 2 1 2 5 4 2 4 5 5 4 4 4 2 1 4 7 5 4 3 6 9 8 5 4 9 9 12 10
2 0 1 4 1 3 6 1 3 8 2 2 3 4 14 17 16 19 7 2 6 11 10 9 9 8 8 4 4 5 6 6 11 9 7 6 6 6 4 4 4 4 3 4 3 2 2 2 3 3 4 5 5 3 2 2 3 3 3 5 5 5 5 4 4 4 4 4 4 3 3 3 3 1 1 3 4 5 5 5 6 5 2 1 6 7 6 6 5 4 9 8 6 5 8 9 10
1 2 2 1 2 3 2 5 3 4 7 9 5 8 13 14 14 18 16 4 6 11 9 9 9 8 8 6 6 6 7 9 10 6 6 5 5 6 5 3 3 3 3 3 3 1 2 2 2 2 3 4 4 3 3 4 4 5 4 4 5 5 4 5 4 4 4 4 4 4 4 4 4 3 2 1 2 4 4 5 6 4 4 3 7 8 7 8 10 9 6 9 10 8 6 9 12
4 3 1 2 2 6 4 5 4 2 3 8 6 5 9 15 15 17 15 5 7 10 12 13 8 7 7 7 8 8 6 10 6 5 5 5 6 5 4 3 4 4 4 2 2 2 1 2 2 3 4 3 3 4 4 3 3 2 2 3 1 2 2 2 4 4 4 3 3 4 4 4 4 3 3 2 1 1 4 5 6 5 5 3 2 4 6 5 4 7 9 7 10 10 7 6 7
0 0 1 5 1 8 3 2 3 3 1 4 3 9 15 15 14 16 12 7 14 13 10 10 9 7 7 7 9 8 6 3 4 4 5 5 5 6 4 4 3 3 4 1 2 2 3 2 0 1 3 3 3 1 1 2 1 0 0 0 0 2 4 3 3 4 4 4 5 5 5 5 3 2 2 2 2 1 2 5 7 8 7 6 3 5 5 5 7 9 9 7 2 7 8 9 9
2 2 2 1 6 4 9 1 3 1 1 10 4 10 18 20 18 18 13 11 13 10 7 8 5 6 7 7 7 4 1 4 4 6 5 5 6 6 5 4 4 5 5 5 4 3 2 1 0 1 2 2 2 1 1 2 1 1 1 1 0 1 0 0 1 1 2 4 4 5 4 4 4 4 3 3 3 2 2 1 2 4 4 6 6 4 6 9 9 9 9 10 7 1 2 6 9
3 1 1 7 2 3 7 2 3 1 1 5 5 8 16 19 13 11 10 5 7 5 5 9 6 9 9 10 7 5 4 4 7 8 8 6 5 6 5 5 6 4 4 5 5 3 3 2 2 1 0 0 0 1 3 3 3 3 3 3 1 0 0 1 1 2 3 4 5 4 5 4 4 3 3 3 3 3 2 3 3 3 3 5 8 9 8 7 5 6 6 8 12 7 5 7 2
1 4 3 3 1 3 6 6 4 2 1 1 5 7 10 6 8 10 7 3 4 7 6 6 8 10 9 5 4 4 7 8 9 8 7 6 7 9 8 7 3 5 5 6 6 4 3 4 4 2 1 0 1 2 4 4 4 4 3 3 2 2 1 2 1 2 3 2 2 4 4 3 3 3 4 4 3 4 3 2 2 3 4 3 4 6 8 9 10 10 10 9 10 11 7 5 5
2 5 8 6 4 6 5 3 6 7 5 3 3 8 6 7 12 13 11 7 9 5 5 10 10 8 6 7 7 4 6 5 9 11 11 9 8 7 6 6 6 6 6 8 6 4 3 3 4 3 2 2 3 3 3 3 3 5 3 2 0 1 1 1 2 3 1 0 0 1 2 4 3 3 4 4 3 2 3 2 3 4 3 4 5 5 5 5 6 7 9 11 8 7 14 9 6
1 4 5 6 4 3 2 3 2 3 1 1 3 2 10 6 16 12 6 7 13 10 7 12 7 8 6 8 8 6 7 7 7 7 6 6 9 7 8 8 8 7 9 5 3 3 2 3 4 3 4 3 3 4 4 3 3 3 4 4 3 4 3 4 1 1 0 0 0 2 2 3 4 3 4 4 3 3 1 2 2 3 4 4 3 4 5 8 8 9 7 7 9 9 6 11 11
3 1 3 3 3 4 3 2 1 3 2 4 1 4 3 7 17 2 1 8 14 12 9 7 7 7 8 8 7 7 7 7 7 10 11 10 8 9 12 12 8 11 8 3 4 3 5 6 5 5 4 4 4 4 4 4 5 4 3 3 3 3 4 5 3 1 1 1 1 1 2 3 3 4 3 3 3 3 1 1 1 1 2 3 4 5 6 5 4 2 5 5 5 7 11 12 9
2 1 4 3 4 2 3 1 1 0 4 10 1 2 1 5 13 4 1 8 11 10 9 6 5 4 6 7 8 8 7 7 7 8 11 13 13 13 12 10 8 5 6 6 5 4 3 3 4 3 4 3 4 4 5 4 4 5 5 4 3 3 2 2 0 0 1 1 1 0 1 2 3 3 3 3 3 2 2 1 2 2 3 2 3 3 3 4 6 7 6 5 6 6 7 6 8
0 6 7 6 5 5 3 2 1 2 2 9 4 4 4 7 7 11 2 1 7 9 8 8 7 5 5 6 6 7 6 6 6 9 9 9 11 11 8 5 6 9 6 5 4 2 2 2 5 5 6 5 3 4 5 4 4 4 4 4 5 4 1 1 1 1 0 0 1 0 0 0 1 1 2 2 1 2 1 1 1 2 2 2 2 3 3 3 4 5 6 7 5 6 5 7 8
6 3 6 5 7 4 2 5 3 3 2 12 3 9 4 6 6 10 3 3 4 5 6 5 7 7 5 4 6 6 5 5 6 7 8 9 6 6 4 8 9 7 6 5 5 4 3 3 5 6 7 4 4 4 4 5 4 4 5 5 5 5 4 3 2 2 1 1 3 2 1 1 1 1 1 2 1 1 1 2 2 1 1 1 3 3 4 4 4 4 3 3 4 5 5 5 5
5 2 4 4 2 6 3 4 4 1 7 6 3 3 1 7 7 9 7 6 4 6 7 10 11 12 11 8 6 6 5 6 6 5 7 7 7 8 5 9 10 10 6 7 6 5 5 5 4 8 7 6 6 5 4 5 6 5 4 5 5 5 5 5 6 6 5 5 4 4 2 1 2 1 1 1 1 0 1 1 2 2 2 2 2 1 2 3 3 4 4 4 3 3 3 4 4
4 6 6 3 3 5 2 3 1 5 7 2 0 5 3 10 9 10 15 15 10 5 8 10 12 14 13 11 10 7 5 5 6 6 6 6 7 9 8 12 9 9 11 10 9 7 6 6 6 7 10 7 8 7 7 6 5 6 6 5 5 5 5 5 6 5 4 5 5 4 4 5 3 2 4 3 2 1 1 3 2 3 3 2 2 2 2 2 3 3 4 4 4 4 5 5 6
5 7 6 6 0 1 3 5 2 6 7 3 1 1 4 3 9 15 22 22 12 11 10 10 10 12 13 12 10 10 9 6 6 5 6 7 7 9 9 10 10 10 11 12 9 7 7 7 7 8 12 6 7 7 8 7 7 7 6 6 5 5 5 6 6 6 6 6 5 6 6 6 5 5 3 4 2 2 1 1 1 1 1 2 2 2 2 3 4 4 3 4 4 3 3 3 3
8 1 8 7 8 6 4 3 4 5 5 2 3 1 6 6 4 1 7 10 10 7 8 7 7 10 9 8 10 11 11 9 5 6 8 9 10 8 8 9 10 11 11 10 8 8 6 7 7 9 10 8 7 8 7 8 6 6 5 5 5 4 6 6 6 6 6 5 5 5 4 3 4 4 4 2 2 2 1 1 1 2 2 3 3 3 2 3 3 3 3 4 4 5 5 6 5
1 2 5 5 6 5 2 4 3 2 4 4 1 6 4 7 3 9 7 8 10 7 9 7 11 9 5 9 10 10 9 9 6 6 8 9 9 8 8 8 9 10 11 8 9 9 8 10 8 10 11 9 8 8 8 8 7 6 5 5 6 5 4 4 4 4 4 4 4 5 4 3 2 2 2 3 2 2 2 2 1 2 2 2 2 3 3 3 3 4 4 4 6 4 7 8 7
3 4 5 6 3 5 2 2 2 1 1 10 3 8 7 7 7 12 13 11 18 7 7 7 10 9 5 8 10 9 10 8 7 6 8 9 8 7 8 8 9 9 9 11 12 10 11 10 8 10 10 6 7 8 8 7 6 5 5 5 4 4 5 5 6 5 5 3 3 3 3 2 2 3 3 2 3 2 2 2 2 2 2 2 2 2 2 2 2 3 4 5 6 4 5 6 5
7 2 7 1 2 4 4 2 2 4 4 7 0 9 4 1 9 4 5 6 11 6 7 5 7 6 5 8 7 8 10 9 7 8 7 9 9 10 8 8 8 9 9 10 12 9 6 8 9 11 9 9 10 8 8 7 7 6 5 5 5 6 6 5 5 5 4 4 3 2 2 3 3 2 3 3 3 3 2 2 2 2 2 2 2 2 2 2 2 3 2 3 3 4 5 4 3
6 4 3 5 3 1 1 3 3 1 6 8 6 5 6 8 8 5 7 6 8 8 5 4 8 9 7 7 8 9 8 8 8 8 9 9 9 8 6 7 7 7 8 9 9 6 6 7 8 8 11 12 9 8 6 6 6 6 6 7 7 6 4 4 4 4 5 5 4 4 3 3 3 3 4 4 4 3 3 2 3 3 2 3 2 3 3 3 3 4 3 4 3 4 6 6 4
1 3 2 0 2 1 4 5 3 5 6 4 9 2 8 8 6 7 12 13 14 13 9 7 10 10 8 7 7 8 8 8 8 9 9 10 10 9 6 7 9 8 7 8 8 6 9 10 6 9 7 5 4 6 7 7 6 6 5 4 4 5 5 5 5 5 5 5 5 5 5 4 3 3 3 4 4 4 4 4 3 3 3 3 3 3 3 4 4 3 4 4 3 4 6 7 5
1 3 3 0 0 2 5 1 4 3 4 3 5 13 3 7 10 12 15 11 10 10 12 10 9 9 7 8 8 7 7 7 8 9 9 9 10 10 7 5 6 7 7 6 6 8 8 5 8 10 10 9 8 8 7 8 6 6 6 7 6 5 6 5 4 5 5 5 5 5 5 4 4 4 4 4 5 5 5 5 4 4 4 4 4 3 3 3 4 4 3 4 4 4 6 5 6
11 13 12 13 9 3 2 9 2 2 1 6 2 18 3 7 4 8 9 11 9 12 9 10 8 8 9 8 7 6 7 8 8 9 8 9 9 10 8 7 5 5 9 8 7 5 7 9 9 7 6 8 9 8 9 7 6 7 7 6 6 5 5 5 5 4 5 5 5 5 6 5 5 4 5 5 5 5 4 5 5 4 4 4 4 4 3 4 5 5 5 3 4 5 6 5 5
Wind_Direction
324 316 320 323 57 158 54 0 68 326 59 24 46 22 318 355 294 20 356 346 22 284 255 325 322 352 35 224 232 185 187 82 212 99 3 240 292 314 322 306 318 24 23 358 334 286 295 240 233 247 213 215 223 218 217 212 198 160 142 165 194 99 168 175 145 140 99 62 64 301 333 226 252 207 196 185 244 179 215 203 261 119 184 165 151 153 164 162 182 165 164 167 174 189 154 147 138
319 318 316 9 37 49 15 97 103 23 46 78 359 146 302 311 38 348 332 330 221 297 313 300 289 228 98 82 117 130 360 145 170 237 269 245 303 333 9 350 7 14 17 332 329 322 329 310 282 279 252 213 227 231 227 229 209 198 187 180 190 184 196 178 191 181 175 219 268 278 311 92 239 230 226 172 230 240 244 233 242 212 173 13 313 205 185 183 183 198 176 189 222 188 167 158 149
327 339 339 39 42 77 92 36 70 79 84 73 292 12 314 14 344 320 282 278 282 292 296 264 245 20 1 36 16 63 338 354 286 246 231 303 10 310 355 342 43 45 86 351 349 329 339 331 313 302 275 238 227 231 233 232 228 217 230 220 209 195 201 216 208 219 221 187 240 292 299 309 300 283 173 245 176 206 204 201 218 221 168 199 215 236 241 245 207 204 184 203 220 200 182 163 163
325 13 15 28 82 31 47 26 86 114 92 175 17 327 12 298 299 282 281 270 283 315 339 2 23 255 41 27 324 99 301 5 175 266 325 338 113 296 312 327 34 108 85 109 106 343 343 325 319 312 296 281 245 235 230 226 221 227 235 233 230 216 197 200 207 156 177 191 213 224 244 269 299 308 309 292 241 176 203 192 196 205 198 205 222 236 235 225 241 210 200 202 198 225 193 174 172
350 336 65 96 102 6 89 102 120 101 103 190 115 282 308 254 270 296 293 300 280 8 22 341 28 317 119 121 359 81 300 287 305 201 262 263 302 298 281 237 149 120 148 193 168 161 226 293 298 298 288 278 278 247 236 229 225 225 229 233 236 232 229 228 228 224 213 204 209 215 225 230 226 261 287 303 297 279 246 188 198 192 187 184 220 215 227 233 215 222 217 222 213 215 204 181 180
26 32 4 71 67 161 55 49 35 66 128 148 79 297 287 266 288 310 292 308 291 52 35 63 72 310 349 335 177 14 214 33 305 314 351 291 335 326 302 300 8 286 213 191 186 186 191 222 254 270 268 272 270 265 246 233 227 224 223 226 231 233 232 234 237 236 230 225 222 235 240 232 230 231 234 262 276 263 268 258 272 248 206 193 204 192 203 208 215 218 225 234 217 205 190 188 190
355 26 360 29 27 51 116 105 101 126 1 152 159 237 273 299 283 328 339 354 4 359 39 25 314 328 26 322 340 244 225 341 16 327 306 291 309 314 289 307 341 273 285 288 300 227 201 195 208 226 248 263 262 262 251 241 239 235 238 233 231 231 231 234 238 240 241 238 236 238 241 250 250 237 239 242 248 253 268 285 268 254 266 251 223 214 215 211 212 215 216 235 215 202 193 214 198
69 101 329 87 35 53 48 123 107 173 224 155 189 200 286 284 313 44 351 51 324 26 331 310 33 136 170 138 257 270 352 157 241 268 287 295 297 309 327 325 322 304 318 303 272 257 265 245 216 203 213 231 248 252 250 247 243 242 243 244 240 237 235 237 240 243 245 248 249 251 259 262 257 258 253 244 241 254 246 256 272 271 270 271 269 254 262 244 234 231 220 206 227 223 220 226 231
16 80 264 68 56 46 57 85 121 234 276 309 305 229 299 281 300 45 2 280 304 295 312 327 329 76 273 345 214 286 290 302 317 296 321 338 335 321 327 334 337 310 315 306 299 286 263 245 245 241 223 219 228 238 244 248 245 244 247 250 250 246 244 243 240 241 243 249 253 255 258 263 269 267 266 262 252 251 249 246 255 264 270 261 271 274 257 302 313 306 299 273 270 284 323 350 335
33 65 13 107 133 71 38 14 76 163 213 233 245 312 304 328 333 93 351 351 316 313 280 310 227 49 277 250 307 6 328 333 309 352 355 337 318 311 312 294 259 274 295 287 280 282 274 266 255 244 240 238 235 241 241 246 243 236 244 249 251 255 253 248 242 241 241 245 252 257 260 261 264 267 269 272 270 262 257 248 252 265 274 270 256 312 309 332 299 277 298 279 275 245 260 292 286
16 15 144 67 36 86 84 244 304 324 283 333 321 266 236 324 211 55 23 270 299 279 303 315 48 327 39 275 221 258 289 307 354 337 315 316 313 309 311 298 278 247 276 285 267 256 254 264 268 261 259 253 249 249 256 262 263 240 236 247 252 250 248 250 249 249 246 244 251 260 264 266 268 271 273 279 280 275 278 269 250 245 257 270 280 245 317 287 290 281 265 261 249 247 248 244 283
46 9 13 95 77 134 216 123 285 285 292 337 148 284 267 320 88 14 331 1 340 327 295 3 336 190 13 335 309 290 318 327 328 286 304 322 314 300 282 297 305 295 257 275 275 259 256 262 272 275 268 259 256 254 252 252 254 244 234 236 246 249 244 245 245 249 252 254 254 258 267 278 286 275 271 274 278 278 277 277 268 239 228 230 264 293 223 252 282 294 299 284 267 263 262 275 105
102 117 75 75 116 86 193 58 305 269 326 303 159 263 2 33 76 162 278 237 279 355 356 215 357 84 330 348 269 319 338 309 299 294 312 319 307 308 297 288 285 288 296 281 271 268 245 247 253 261 262 261 256 254 256 258 259 257 243 236 238 238 238 241 241 241 251 259 265 270 285 280 293 303 282 274 277 280 277 280 279 257 253 219 225 233 213 234 267 277 256 249 267 270 265 173 128
96 160 113 114 29 102 108 205 320 51 310 236 259 295 354 59 238 182 124 351 316 17 267 11 130 153 247 359 312 329 291 292 315 324 315 311 307 311 309 303 298 305 294 298 278 272 253 235 238 241 251 255 255 256 257 259 261 261 256 245 235 234 235 232 233 236 240 249 256 261 276 287 292 304 304 287 276 261 256 253 255 263 259 232 209 204 221 238 250 247 270 284 320 320 71 284 109
92 119 81 115 41 65 215 95 215 146 255 131 359 3 343 256 144 134 159 329 290 215 299 136 198 101 275 62 297 279 288 302 330 327 320 314 322 313 312 304 298 304 311 310 297 298 284 280 264 253 248 252 247 245 248 253 252 253 255 253 241 233 230 233 234 230 230 233 240 248 270 286 288 278 266 257 248 251 255 247 232 255 254 250 238 230 226 232 258 258 272 245 242 136 47 111 147
141 82 77 86 344 114 233 162 63 114 267 222 336 311 339 289 320 26 286 173 258 321 27 260 348 8 215 167 241 269 285 314 322 326 322 321 328 333 332 332 343 335 324 332 324 315 308 298 302 300 283 257 249 247 248 248 247 243 247 252 253 243 232 225 225 228 227 224 224 232 259 284 312 307 290 282 304 303 290 233 233 227 227 224 224 226 207 203 176 151 133 153 128 142 151 40 45
55 80 53 34 75 246 254 153 149 290 261 268 292 34 17 306 299 234 238 125 294 295 354 240 241 33 189 215 255 277 299 310 329 326 353 349 1 347 344 352 352 338 345 342 1 333 336 318 306 281 276 277 278 269 264 259 260 249 250 248 252 255 244 229 221 220 219 217 207 210 207 156 61 8 33 11 21 17 334 254 237 239 215 198 192 170 174 193 136 126 120 139 114 78 76 64 58
56 55 113 43 184 104 214 181 188 192 284 290 333 60 17 331 332 304 353 26 32 296 309 292 317 265 233 258 263 273 288 322 345 5 351 341 8 349 345 333 346 328 320 324 3 0 342 325 301 288 282 264 255 252 251 252 254 248 244 244 246 243 242 238 229 217 208 201 192 185 168 137 133 39 306 231 117 12 10 360 327 277 179 165 159 149 148 148 122 105 106 90 86 90 80 83 78
74 116 81 145 186 250 152 212 215 91 281 261 284 307 182 252 359 304 20 312 351 346 325 354 321 314 322 315 323 336 341 336 353 358 349 347 348 338 318 312 319 332 335 347 337 351 337 321 317 308 290 284 277 264 255 249 248 240 238 233 240 246 235 226 229 217 202 190 180 175 163 153 168 148 275 314 359 30 39 28 7 348 316 149 138 118 110 99 82 88 77 73 84 85 75 78 92
281 111 82 238 209 258 231 193 256 199 260 311 319 294 42 266 196 282 23 275 348 319 314 337 350 307 305 301 316 324 339 330 344 356 348 334 332 313 312 318 321 325 318 325 318 316 340 344 330 309 301 301 276 277 284 275 264 251 245 233 235 238 233 220 214 209 195 182 174 166 160 159 160 133 89 334 6 54 42 46 19 338 329 2 73 87 93 68 70 73 78 67 55 56 65 64 72
299 68 147 208 212 354 299 178 237 245 153 283 283 296 314 288 212 37 193 14 317 278 236 205 285 290 292 298 309 332 337 335 334 346 345 342 329 287 250 280 281 292 291 306 325 348 346 347 342 337 324 299 273 272 263 262 262 260 267 242 231 238 236 224 211 200 186 173 166 161 164 164 163 129 149 191 243 102 87 58 15 344 355 360 79 120 83 63 53 26 36 41 31 30 51 56 79
50 56 184 175 146 232 255 240 249 238 217 219 303 339 279 297 55 120 130 268 265 222 307 222 260 283 305 318 318 323 328 327 331 341 343 330 314 315 329 317 285 254 298 356 353 336 344 340 342 334 331 333 301 273 262 259 244 243 242 231 233 232 230 224 214 200 183 177 166 161 153 159 152 140 160 203 201 214 88 36 12 0 350 337 336 153 92 61 48 297 136 56 40 39 58 68 90
329 320 302 205 200 247 264 272 222 150 303 273 300 237 328 60 287 242 182 202 241 221 240 276 256 268 284 291 290 309 327 329 332 335 332 333 338 333 327 316 329 336 343 333 323 326 326 342 344 344 346 340 333 305 283 269 244 235 235 222 222 231 224 220 216 205 188 176 171 165 164 167 149 151 164 194 230 210 125 80 2 6 317 333 39 329 94 75 86 28 37 23 16 70 74 81 96
100 287 352 327 144 234 274 288 298 288 216 250 203 343 278 285 322 147 246 248 240 273 266 265 281 295 306 322 301 284 291 296 305 301 295 277 276 286 288 307 318 307 327 323 351 339 344 341 337 342 341 343 330 333 313 281 263 247 241 229 222 232 225 224 210 215 194 190 178 177 181 175 169 166 179 193 194 196 121 134 47 323 308 313 30 61 9 58 52 60 53 34 63 78 86 86 92
40 336 320 280 325 247 286 286 301 299 246 260 338 293 260 192 212 77 260 258 268 269 303 293 305 329 1 324 320 335 344 353 349 329 339 331 288 279 296 289 298 321 350 353 337 344 342 334 336 344 346 340 329 330 322 300 279 251 246 233 235 203 227 256 245 188 195 195 201 190 187 189 181 177 182 205 179 190 193 204 203 248 251 292 334 88 58 24 88 100 85 70 72 84 92 99 96
69 258 322 297 292 303 296 312 291 298 297 136 354 273 286 260 201 241 235 251 256 281 323 9 351 355 354 334 333 324 341 338 310 340 324 297 323 8 343 339 333 357 336 302 330 325 325 332 342 343 337 332 326 331 325 320 295 262 246 239 225 208 219 206 196 220 219 198 210 208 207 202 195 198 198 201 216 246 257 229 182 207 221 177 123 103 85 84 116 99 83 76 81 87 95 100 100
149 290 261 287 289 326 317 12 305 305 224 155 310 297 291 294 147 280 266 242 290 4 354 327 22 350 326 326 332 321 347 328 307 288 335 331 337 28 321 319 350 327 332 327 323 328 318 333 338 338 337 336 335 341 334 324 311 274 260 226 203 202 201 192 193 192 182 204 225 211 207 206 192 193 197 197 212 233 231 211 197 173 206 199 184 150 111 122 6 85 89 82 83 94 87 85 101
336 272 306 315 324 248 279 327 326 360 356 118 281 283 310 295 162 228 201 204 221 57 320 329 359 339 326 327 336 313 327 293 296 11 187 36 10 322 319 320 313 322 338 322 313 308 323 331 328 333 339 336 344 349 343 340 332 303 273 206 203 196 177 199 202 194 191 186 219 215 211 195 176 179 175 175 195 225 218 204 185 175 212 192 158 142 132 114 90 77 83 83 72 92 82 75 78
307 21 355 308 347 7 343 349 350 23 298 9 210 298 1 235 222 236 201 207 46 61 337 322 332 331 330 332 328 326 304 295 303 295 238 214 248 242 269 279 270 294 273 259 280 306 318 324 332 329 337 339 359 354 348 330 328 322 315 205 185 180 185 193 204 198 194 191 206 213 214 199 189 188 183 190 205 211 217 206 191 198 187 174 161 150 130 124 111 98 80 89 83 83 83 76 83
297 36 63 339 356 327 297 317 6 356 277 19 2 349 280 267 258 272 262 352 21 1 333 319 313 315 327 335 324 305 299 307 275 245 249 248 235 235 238 277 280 244 274 289 311 311 304 317 324 322 342 349 352 356 352 357 352 338 333 147 167 166 186 196 202 201 199 206 210 203 200 211 204 191 187 202 196 200 207 200 182 187 182 160 139 138 148 141 120 104 106 94 84 88 82 60 88
125 274 67 61 8 271 291 33 304 18 301 25 63 263 291 276 265 283 290 50 35 327 304 303 298 295 292 314 301 292 282 239 241 260 261 257 245 244 231 273 277 278 290 288 284 307 325 333 334 337 343 344 354 4 6 2 357 2 354 10 99 166 183 200 204 196 207 221 218 212 198 199 198 190 191 185 187 186 179 171 180 180 166 147 135 160 143 123 115 116 124 104 108 93 77 58 61
24 37 295 329 152 282 306 22 9 21 322 16 81 284 248 275 286 247 246 323 6 316 304 289 288 288 279 274 260 279 273 273 258 256 250 251 244 245 233 254 270 282 258 269 298 324 325 329 329 346 345 351 353 2 11 12 7 6 7 10 24 39 54 353 327 303 309 312 239 240 226 242 224 188 178 172 169 178 175 176 186 159 158 138 132 124 123 124 116 112 112 128 118 110 101 77 61
354 105 264 267 4 267 337 14 35 44 265 348 72 265 319 302 97 80 236 328 327 304 293 290 282 280 276 233 220 264 299 292 281 258 254 241 249 229 237 245 264 257 272 294 314 335 335 342 345 3 356 340 337 352 15 28 25 22 18 20 24 35 36 23 25 32 52 48 18 41 57 233 302 234 170 171 160 166 165 168 172 177 168 147 138 124 122 140 127 115 100 70 128 126 116 107 83
311 53 202 201 207 286 249 313 63 357 50 296 2 192 251 262 283 270 280 333 309 297 280 275 270 270 266 257 232 245 255 252 245 242 243 237 237 237 238 238 257 279 289 288 287 293 305 316 331 340 327 331 323 338 10 44 41 39 31 25 34 39 30 34 35 51 49 37 57 69 257 164 190 218 224 162 159 164 162 159 148 116 312 141 121 104 99 101 122 134 117 90 106 126 128 122 115
262 356 316 306 258 200 247 335 270 8 17 316 318 273 269 273 278 290 288 252 266 272 269 270 273 267 272 256 237 234 240 242 239 231 234 242 246 246 248 255 270 282 283 298 298 300 320 312 331 339 345 339 337 333 351 42 46 44 45 33 32 27 26 21 30 52 32 41 41 23 13 11 7 25 236 202 156 155 148 147 145 149 163 242 115 119 112 95 78 86 122 110 76 66 118 112 112
254 179 186 175 290 266 215 238 278 55 325 312 271 258 283 285 289 290 297 301 261 264 275 273 267 262 266 250 244 233 232 240 241 236 237 247 250 250 258 271 278 271 271 296 291 2 356 320 324 331 342 331 323 349 357 17 47 42 22 355 15 8 8 27 29 48 47 46 31 37 30 27 26 15 346 333 132 139 145 149 142 148 157 202 156 146 151 149 140 118 108 120 115 96 89 120 121
104 114 131 238 240 280 273 277 265 10 314 258 276 298 279 279 278 279 285 304 273 274 281 281 268 255 251 251 239 233 230 231 246 244 244 245 259 264 264 283 288 300 265 265 326 341 337 294 326 1 317 341 13 2 1 12 21 10 33 35 45 317 340 15 47 28 49 53 50 56 57 45 36 36 15 35 48 169 158 148 141 143 135 123 111 118 123 103 89 114 118 110 122 119 123 131 129
37 143 220 275 166 268 235 264 13 332 93 279 14 319 290 282 284 281 289 285 274 267 269 272 270 249 243 233 243 236 235 294 298 280 257 263 266 270 277 282 286 289 273 287 281 282 279 301 84 311 330 344 17 334 357 39 17 101 158 255 341 347 360 19 30 14 19 37 42 38 33 27 26 69 86 81 79 94 174 160 164 164 155 144 129 124 107 104 124 132 129 102 71 135 147 165 161
65 211 203 309 270 249 286 270 342 303 82 267 356 340 297 292 291 290 282 272 268 266 233 249 251 260 243 236 245 256 234 250 258 262 271 260 270 273 269 267 271 234 264 279 262 281 286 285 281 285 302 334 339 345 82 78 41 30 95 164 127 353 313 214 112 99 74 68 51 42 39 31 20 29 29 55 76 82 80 100 164 151 147 137 120 120 139 150 152 150 156 144 129 54 135 181 177
146 134 151 236 235 21 305 291 360 348 130 294 346 320 292 290 287 282 292 266 277 282 252 252 238 250 234 221 216 202 215 230 235 232 235 250 254 264 276 269 252 266 267 276 260 242 260 267 264 261 280 293 21 52 97 90 87 77 69 90 50 126 239 335 43 46 42 49 38 27 36 20 12 15 17 63 86 47 64 114 115 135 157 173 157 152 158 158 154 153 154 155 143 135 171 200 267
289 172 180 242 230 233 189 272 315 271 14 53 320 290 292 312 332 332 311 331 321 283 298 280 264 245 255 295 291 203 197 203 223 237 246 249 248 241 234 239 276 267 252 252 254 234 216 229 225 221 236 221 175 142 128 134 106 66 58 52 40 23 11 13 7 8 19 36 31 25 6 9 13 21 24 18 51 96 95 103 127 141 161 187 169 156 164 173 173 173 166 157 166 154 168 202 221
310 225 197 212 204 244 275 320 5 1 331 349 13 347 298 298 309 279 295 332 315 293 310 272 260 257 256 259 247 220 237 219 211 220 222 224 233 254 261 256 253 251 254 248 236 231 197 232 232 233 240 205 173 171 161 139 138 137 102 92 345 359 305 310 258 233 268 358 5 321 3 22 16 26 25 21 30 63 108 120 140 157 174 182 188 185 165 141 164 167 176 171 174 181 163 173 195
85 273 189 223 220 213 254 291 50 324 259 277 65 102 277 324 295 298 311 324 297 295 247 262 260 257 248 242 248 224 219 233 242 246 248 246 241 241 253 247 237 237 244 243 259 251 233 228 239 223 207 193 181 170 170 144 130 149 165 178 185 205 227 262 249 314 77 26 48 36 358 10 21 41 25 25 26 20 50 92 146 171 175 176 160 146 163 183 181 184 171 176 185 164 150 168 180
233 248 139 128 152 193 209 129 126 242 270 287 83 146 216 333 291 96 328 331 297 310 298 260 251 244 243 243 244 244 236 225 218 223 224 226 231 219 228 230 228 225 233 250 248 238 225 222 216 222 219 197 188 174 177 185 175 185 173 190 189 219 217 244 221 199 88 133 78 23 10 3 8 23 30 26 26 32 44 73 94 139 165 175 165 182 187 184 159 136 181 180 149 170 171 174 176
218 188 131 136 167 174 123 75 114 137 55 294 26 240 278 238 268 280 25 304 297 297 278 287 292 275 253 251 250 247 245 238 222 225 221 217 221 223 225 231 235 251 251 240 226 217 225 247 257 258 238 223 207 182 182 198 198 192 194 187 223 237 231 240 247 23 127 152 114 26 19 3 11 17 33 34 23 33 41 88 111 139 158 185 178 157 160 170 181 170 166 168 179 176 180 162 156
188 124 86 89 82 68 80 104 65 349 64 273 212 205 226 276 272 302 15 267 283 259 267 276 266 261 266 268 269 264 259 254 245 242 242 236 229 229 227 253 275 245 246 243 251 236 224 219 251 237 233 233 212 202 191 194 199 190 190 198 209 233 162 115 109 142 66 349 165 330 355 26 5 2 6 25 44 35 53 76 104 146 159 158 171 169 155 169 182 185 187 191 185 178 174 166 172
139 81 65 26 36 31 27 59 81 53 295 252 218 202 175 288 260 251 255 215 205 289 304 290 304 314 301 266 273 281 277 264 254 246 248 252 263 274 267 249 249 269 251 242 247 228 204 197 229 242 231 223 216 210 184 196 190 191 205 204 204 208 202 177 183 239 225 207 219 234 244 280 344 343 360 11 22 32 60 59 97 95 98 135 156 166 182 186 188 178 168 160 176 179 180 164 146
136 99 123 50 355 11 30 349 38 148 268 260 284 224 188 193 290 282 233 273 228 218 266 287 300 302 304 299 273 263 266 271 271 267 262 256 267 262 254 257 250 252 266 251 239 226 211 204 209 242 247 232 219 210 200 207 185 199 210 202 203 202 183 188 203 221 211 216 215 216 209 223 272 328 339 329 345 10 86 89 107 127 139 154 176 156 152 165 152 138 149 167 170 159 146 158 159
87 99 79 111 252 35 320 22 287 210 223 230 30 152 352 241 248 281 294 271 268 215 227 263 282 289 289 292 295 292 273 273 273 267 268 263 245 248 239 245 249 249 241 237 231 220 213 205 207 224 246 230 224 193 198 201 191 203 203 205 208 190 185 194 205 218 208 213 210 207 186 215 210 247 234 227 235 217 168 149 164 169 168 171 151 144 139 139 140 146 154 152 155 172 178 173 172
121 151 143 100 157 250 258 272 252 312 291 298 182 157 255 261 276 246 255 270 277 276 254 251 256 264 277 283 295 299 293 274 268 257 256 254 245 243 242 244 242 242 240 235 228 217 215 212 208 213 241 224 226 211 207 198 201 201 202 207 207 184 194 191 205 205 213 214 203 210 209 207 202 220 204 220 183 190 222 248 185 141 126 95 131 138 133 139 141 143 141 146 150 131 124 141 134
210 106 156 180 141 154 220 196 211 220 225 285 274 108 233 146 244 234 238 258 276 271 272 277 270 268 275 289 286 283 283 282 254 256 250 249 252 250 254 245 245 244 246 244 233 225 211 217 208 219 238 235 220 220 212 209 205 201 202 207 206 193 193 190 202 203 205 206 216 219 224 211 203 211 196 173 146 178 167 133 139 75 44 66 90 125 125 126 125 115 125 129 127 138 128 129 129
222 168 65 86 236 139 199 212 169 284 329 325 204 211 201 189 274 292 243 258 268 262 288 284 291 286 310 304 289 282 282 282 275 258 266 258 254 258 251 251 247 245 246 243 243 232 212 221 212 217 224 226 219 221 220 208 205 196 196 197 210 202 196 183 185 194 205 201 210 203 220 205 199 156 141 135 160 153 154 142 103 83 42 51 75 106 143 141 145 135 138 144 134 147 138 139 147
207 99 194 213 165 113 69 56 58 18 42 250 173 290 276 298 305 272 297 311 291 299 252 268 270 281 320 283 285 289 287 285 287 274 264 271 269 255 247 251 253 250 247 238 237 231 221 215 211 221 228 228 225 225 221 208 196 183 207 204 195 191 186 186 195 197 196 184 180 190 187 178 140 144 143 139 138 126 132 138 138 132 117 96 99 115 134 142 142 145 152 150 148 150 143 148 147
94 192 235 169 133 112 127 249 345 62 225 275 98 232 268 71 285 312 350 308 283 294 273 267 277 265 277 272 277 282 288 290 286 279 273 267 269 271 265 252 248 249 244 246 243 236 243 239 216 214 220 223 227 222 222 207 190 187 194 204 202 198 192 197 185 183 165 150 143 136 128 141 157 138 137 141 135 134 124 130 138 132 126 127 127 119 126 120 114 99 107 108 121 129 116 99 97
147 197 198 129 238 221 321 87 297 276 274 280 281 264 261 196 238 334 297 282 278 278 290 320 295 293 277 276 281 284 288 301 297 294 290 279 265 258 262 267 265 253 253 248 252 240 236 241 238 218 218 219 218 213 220 214 192 180 187 199 195 199 200 187 178 158 151 152 159 156 157 150 125 136 135 142 143 140 136 140 144 140 133 127 106 127 128 122 119 117 108 116 117 122 121 115 100
54 86 113 58 110 168 115 194 179 114 275 23 289 63 246 196 218 207 247 249 252 269 280 258 254 255 257 255 264 272 286 292 292 285 280 276 280 279 281 290 295 288 273 259 252 246 238 237 236 237 240 237 224 220 211 208 195 177 188 193 204 192 188 179 171 157 158 162 160 154 147 145 153 135 144 147 152 156 155 151 154 148 141 138 134 114 122 120 117 117 126 126 125 124 121 124 118
157 157 217 92 354 225 106 77 139 184 200 199 297 296 249 238 212 198 228 238 244 243 253 257 257 262 248 244 248 264 269 278 284 280 278 282 285 290 296 293 283 284 272 264 249 242 248 246 235 234 223 219 219 217 205 214 180 184 179 194 192 183 181 168 157 161 158 154 147 146 147 145 134 158 152 159 161 161 159 155 149 150 147 144 139 128 117 120 115 116 104 114 118 120 121 119 122
181 178 198 187 142 133 193 258 53 100 154 250 176 269 212 252 231 204 233 257 248 246 230 257 264 264 263 261 259 252 271 275 271 277 279 282 286 289 293 294 280 282 281 271 256 245 248 237 236 238 234 229 219 212 206 200 193 174 187 195 193 187 169 156 154 159 152 151 148 148 144 139 156 156 162 165 163 159 155 149 148 146 142 139 136 131 125 125 127 122 116 113 121 124 121 121 122